Tracking 29781 objects as of 16-Oct-2024
HD Live streaming from Space Station
objects crossing your sky now

COSMOS 1375 DEB

Track COSMOS 1375 DEB now!
10-day predictions


NORAD ID: 16202
Int'l Code: 1982-055D
Perigee: 841.6 km
Apogee: 973.9 km
Inclination: 65.8 °
Period: 103.0 minutes
Semi major axis: 7278 km
RCS: 0.038 m2 (small)
Launch date: June 6, 1982
Source: Commonwealth of Independent States (former USSR) (CIS)
Launch site: PLESETSK MISSILE AND SPACE COMPLEX (PKMTR)

Note: This is SATELLITE DEBRIS
Your satellite tracking list
Your tracking list is empty




NASA's NSSDC Master Catalog

Two Line Element Set (TLE):
1 16202U 82055D   24289.51834250  .00001370  00000-0  98814-3 0  9998
2 16202  65.8284  70.7286 0090893 297.8774 137.1312 13.98023598152586
Source of the keplerian elements: AFSPC